TimeCST,TemperatureF,Dew PointF,Humidity,Sea Level PressureIn,VisibilityMPH,Wind Direction,Wind SpeedMPH,Gust SpeedMPH,PrecipitationIn,Events,Conditions,WindDirDegrees,DateUTC
12:46 AM,26.6,24.8,93,30.23,4.0,NE,8.1,-,N/A,,Mostly Cloudy,50,2013-02-08 06:46:00
12:55 AM,27.0,25.0,92,30.26,3.0,NE,9.2,-,N/A,,Overcast,50,2013-02-08 06:55:00
1:40 AM,26.6,26.6,100,30.24,2.5,East,4.6,-,N/A,,Overcast,90,2013-02-08 07:40:00
1:55 AM,27.0,26.1,96,30.27,2.5,ENE,4.6,-,N/A,,Overcast,60,2013-02-08 07:55:00
2:44 AM,26.6,26.6,100,30.26,1.8,NNE,5.8,-,N/A,,Overcast,30,2013-02-08 08:44:00
2:55 AM,27.0,26.1,96,30.29,1.5,NE,4.6,-,N/A,,Overcast,50,2013-02-08 08:55:00
3:28 AM,26.6,26.6,100,30.26,1.2,North,3.5,-,N/A,,Overcast,360,2013-02-08 09:28:00
3:53 AM,26.6,24.8,93,30.26,0.8,NNE,4.6,-,N/A,,Overcast,20,2013-02-08 09:53:00
3:55 AM,27.0,25.0,92,30.29,0.8,North,3.5,-,N/A,,Overcast,10,2013-02-08 09:55:00
4:55 AM,26.1,25.0,96,30.30,0.5,NE,5.8,-,N/A,Fog,Light Freezing Fog,40,2013-02-08 10:55:00
5:55 AM,27.0,25.0,92,30.29,0.2,ENE,6.9,-,N/A,Fog,Light Freezing Fog,60,2013-02-08 11:55:00
6:55 AM,26.1,25.0,96,30.31,0.2,ENE,5.8,-,N/A,Fog,Light Freezing Fog,60,2013-02-08 12:55:00
7:55 AM,26.1,25.0,96,30.32,0.2,ESE,3.5,-,N/A,Fog,Light Freezing Fog,120,2013-02-08 13:55:00
8:55 AM,26.1,25.0,96,30.32,0.2,ESE,8.1,-,N/A,Fog,Light Freezing Fog,110,2013-02-08 14:55:00
9:55 AM,26.1,25.0,96,30.35,0.2,ESE,4.6,-,N/A,Fog,Light Freezing Fog,110,2013-02-08 15:55:00
10:55 AM,27.0,26.1,96,30.35,0.2,SSE,5.8,-,N/A,Fog,Light Freezing Fog,150,2013-02-08 16:55:00
11:40 AM,28.4,26.6,93,30.31,1.2,SE,6.9,-,N/A,,Overcast,140,2013-02-08 17:40:00
11:48 AM,28.4,28.4,100,30.30,1.8,SSE,10.4,-,N/A,,Overcast,150,2013-02-08 17:48:00
11:55 AM,28.9,27.0,92,30.35,2.0,SE,10.4,-,N/A,,Overcast,130,2013-02-08 17:55:00
12:30 PM,30.2,28.4,93,30.28,3.0,SE,11.5,-,N/A,,Overcast,140,2013-02-08 18:30:00
12:55 PM,30.9,28.0,89,30.30,3.0,SSE,11.5,-,N/A,,Overcast,150,2013-02-08 18:55:00
1:19 PM,30.2,26.6,86,30.25,3.0,SE,12.7,-,N/A,,Overcast,130,2013-02-08 19:19:00
1:42 PM,33.8,28.4,81,30.22,4.0,SE,9.2,-,N/A,,Haze,140,2013-02-08 19:42:00
1:55 PM,35.1,28.0,76,30.26,4.0,SE,8.1,-,N/A,,Haze,140,2013-02-08 19:55:00
2:55 PM,39.0,28.9,67,30.23,4.0,SSE,12.7,-,N/A,,Haze,160,2013-02-08 20:55:00
3:55 PM,39.9,28.9,65,30.21,5.0,SSE,12.7,-,N/A,,Haze,150,2013-02-08 21:55:00
4:55 PM,39.0,28.9,67,30.18,4.0,SSE,12.7,-,N/A,,Haze,150,2013-02-08 22:55:00
5:55 PM,35.1,28.9,78,30.18,3.0,SE,10.4,-,N/A,,Haze,140,2013-02-08 23:55:00
6:04 PM,33.8,28.4,81,30.14,2.5,SE,10.4,-,N/A,,Haze,140,2013-02-09 00:04:00
6:22 PM,33.8,28.4,81,30.13,4.0,SE,10.4,-,N/A,,Haze,140,2013-02-09 00:22:00
6:55 PM,30.9,27.0,85,30.17,3.0,SSE,8.1,-,N/A,,Clear,150,2013-02-09 00:55:00
7:55 PM,33.1,28.9,85,30.13,4.0,SE,13.8,-,N/A,,Clear,140,2013-02-09 01:55:00
8:55 PM,34.0,28.9,82,30.13,6.0,SSE,18.4,21.9,N/A,,Haze,150,2013-02-09 02:55:00
9:55 PM,34.0,28.0,79,30.13,7.0,SSE,17.3,-,N/A,,Clear,160,2013-02-09 03:55:00
10:55 PM,30.9,28.0,89,30.14,6.0,SE,9.2,-,N/A,,Clear,140,2013-02-09 04:55:00
11:55 PM,32.0,28.9,88,30.12,5.0,SE,13.8,-,N/A,,Clear,140,2013-02-09 05:55:00